Location: Unspecified
(0.0000°N, 0.0000°E)
Time: 22:48:58
(UTC+00:00)

Vanguard 2 - Pass Details

Date: 05 October 2020
Orbit: 554 x 2937 km, 32.9° (Epoch: 28 October)

Event Time Altitude Azimuth Distance (km) Brightness Sun altitude
Rises 19:35:24 0° 217° (SW) 5,830 12.6 -26.7°
Reaches altitude 10° 19:39:53 10° 206° (SSW) 5,134 12.1 -27.8°
Maximum altitude 19:52:56 29° 151° (SSE) 4,284 11.0 -31.0°
Enters shadow 19:57:08 27° 131° (SE) 4,483 11.0 -32.1°
Drops below altitude 10° 20:07:12 10° 98° (E) 5,675 - -34.6°
Sets 20:12:22 0° 88° (E) 6,522 - -35.9°
